When you browse on this site, cookies collect data to enhance your experience and personalize the content and advertising you see.
Visit our Privacy Policy to learn more. By continuing to use the site, you agree to this use of cookies and data.
  • en France
  • Liste des pays
  • À 7 jours
  • Température de l'eau
  • Carte satellitaire
  • Carte météo
  • Widgets météo
  • user-avatar
    Se connecter

    Météo par heure à Trinidad

    Ce jour, 22 Mars, Vendredi

    Heure Température Précipitation Vent Pression Humidité
    00:00 +23°C° 0 mm 1 m/s 745 mmHg 88%
    01:00 +23°C° 0 mm 1 m/s 745 mmHg 90%
    02:00 +22°C° 0 mm 1 m/s 746 mmHg 91%
    03:00 +22°C° 0 mm 1 m/s 745 mmHg 91%
    04:00 +22°C° 0 mm 1 m/s 745 mmHg 92%
    05:00 +22°C° 0 mm 1 m/s 745 mmHg 92%
    06:00 +22°C° 0 mm 1 m/s 746 mmHg 90%
    07:00 +23°C° 0 mm 2 m/s 746 mmHg 87%
    08:00 +24°C° 0 mm 2 m/s 747 mmHg 84%
    09:00 +26°C° 0 mm 2 m/s 747 mmHg 77%
    10:00 +27°C° 0 mm 2 m/s 747 mmHg 70%
    11:00 +29°C° 0 mm 2 m/s 747 mmHg 63%
    12:00 +30°C° 0 mm 2 m/s 746 mmHg 60%
    13:00 +32°C° 0 mm 1 m/s 746 mmHg 57%
    14:00 +33°C° 0 mm 1 m/s 745 mmHg 54%
    15:00 +32°C° 0 mm 1 m/s 744 mmHg 56%
    16:00 +32°C° 0 mm 1 m/s 743 mmHg 58%
    17:00 +30°C° 0 mm 0 m/s 743 mmHg 61%
    18:00 +30°C° 0 mm 1 m/s 743 mmHg 65%
    19:00 +28°C° 0 mm 1 m/s 743 mmHg 69%
    20:00 +26°C° 0 mm 1 m/s 743 mmHg 74%
    21:00 +26°C° 0 mm 1 m/s 744 mmHg 75%
    22:00 +26°C° 0 mm 1 m/s 745 mmHg 76%
    23:00 +25°C° 0 mm 1 m/s 746 mmHg 78%

    Demain, 23 Mars, Samedi

    Heure Température Précipitation Vent Pression Humidité
    00:00 +25°C° 0 mm 1 m/s 745 mmHg 79%
    01:00 +24°C° 0 mm 1 m/s 745 mmHg 79%
    02:00 +24°C° 0 mm 1 m/s 745 mmHg 80%
    03:00 +24°C° 0 mm 1 m/s 745 mmHg 82%
    04:00 +24°C° 0 mm 1 m/s 745 mmHg 84%
    05:00 +23°C° 0 mm 1 m/s 745 mmHg 86%
    06:00 +24°C° 0 mm 2 m/s 745 mmHg 84%
    07:00 +25°C° 0 mm 2 m/s 746 mmHg 83%
    08:00 +25°C° 0 mm 2 m/s 746 mmHg 81%
    09:00 +27°C° 0 mm 2 m/s 747 mmHg 74%
    10:00 +30°C° 0 mm 2 m/s 747 mmHg 67%
    11:00 +32°C° 0 mm 2 m/s 747 mmHg 60%
    12:00 +34°C° 0 mm 2 m/s 746 mmHg 57%
    13:00 +34°C° 0 mm 1 m/s 745 mmHg 54%
    14:00 +35°C° 0 mm 1 m/s 744 mmHg 50%
    15:00 +34°C° 0 mm 1 m/s 743 mmHg 53%
    16:00 +34°C° 0 mm 1 m/s 743 mmHg 56%
    17:00 +33°C° 0 mm 1 m/s 742 mmHg 59%
    18:00 +30°C° 0 mm 0 m/s 742 mmHg 64%
    19:00 +28°C° 0 mm 0 m/s 743 mmHg 69%
    20:00 +26°C° 0 mm 0 m/s 743 mmHg 73%
    21:00 +25°C° 0 mm 0 m/s 744 mmHg 75%
    22:00 +25°C° 0 mm 0 m/s 744 mmHg 77%
    23:00 +24°C° 0 mm 0 m/s 745 mmHg 79%

    Après-demain, 24 Mars, Dimanche

    Heure Température Précipitation Vent Pression Humidité
    00:00 +24°C° 0 mm 0 m/s 744 mmHg 80%
    01:00 +24°C° 0 mm 0 m/s 744 mmHg 81%
    02:00 +24°C° 0 mm 0 m/s 744 mmHg 81%
    03:00 +23°C° 0 mm 0 m/s 743 mmHg 83%
    04:00 +23°C° 0 mm 0 m/s 743 mmHg 84%
    05:00 +24°C° 0 mm 1 m/s 743 mmHg 86%
    06:00 +23°C° 0 mm 0 m/s 744 mmHg 83%
    07:00 +24°C° 0 mm 0 m/s 744 mmHg 81%
    08:00 +25°C° 0 mm 0 m/s 745 mmHg 78%
    09:00 +29°C° 0 mm 1 m/s 745 mmHg 71%
    10:00 +31°C° 0 mm 1 m/s 745 mmHg 64%
    11:00 +33°C° 0 mm 1 m/s 745 mmHg 57%
    12:00 +34°C° 0 mm 1 m/s 744 mmHg 54%
    13:00 +36°C° 0 mm 1 m/s 743 mmHg 50%
    14:00 +35°C° 0 mm 0 m/s 742 mmHg 47%
    15:00 +36°C° 0 mm 1 m/s 742 mmHg 50%
    16:00 +35°C° 0 mm 1 m/s 741 mmHg 54%
    17:00 +35°C° 0 mm 1 m/s 740 mmHg 57%
    18:00 +33°C° 0 mm 1 m/s 741 mmHg 65%
    19:00 +31°C° 0 mm 1 m/s 742 mmHg 72%
    20:00 +29°C° 0 mm 1 m/s 742 mmHg 80%
    21:00 +28°C° 0.2 mm 1 m/s 743 mmHg 83%
    22:00 +27°C° 0.2 mm 1 m/s 743 mmHg 86%
    23:00 +26°C° 0.2 mm 1 m/s 744 mmHg 89%

    25 Mars, Lundi

    Heure Température Précipitation Vent Pression Humidité
    00:00 +24°C° 1.4 mm 0 m/s 743 mmHg 91%
    01:00 +24°C° 1.4 mm 0 m/s 743 mmHg 93%
    02:00 +23°C° 1.4 mm 0 m/s 743 mmHg 94%
    03:00 +23°C° 2.1 mm 0 m/s 742 mmHg 95%
    04:00 +25°C° 2.1 mm 1 m/s 742 mmHg 96%
    05:00 +25°C° 2.1 mm 1 m/s 742 mmHg 97%
    06:00 +25°C° 1 mm 1 m/s 743 mmHg 97%
    07:00 +25°C° 1 mm 1 m/s 743 mmHg 96%
    08:00 +25°C° 1 mm 1 m/s 744 mmHg 96%
    09:00 +26°C° 0.4 mm 2 m/s 744 mmHg 94%
    10:00 +27°C° 0.4 mm 2 m/s 744 mmHg 92%
    11:00 +28°C° 0.4 mm 2 m/s 744 mmHg 90%
    12:00 +29°C° 0.6 mm 2 m/s 743 mmHg 86%
    13:00 +30°C° 0.6 mm 1 m/s 742 mmHg 81%
    14:00 +31°C° 0.6 mm 1 m/s 741 mmHg 77%
    15:00 +31°C° 0.3 mm 1 m/s 741 mmHg 77%
    16:00 +29°C° 0.3 mm 0 m/s 741 mmHg 78%
    17:00 +29°C° 0.3 mm 0 m/s 741 mmHg 78%
    18:00 +27°C° 0 mm 0 m/s 741 mmHg 82%
    19:00 +26°C° 0 mm 0 m/s 742 mmHg 86%
    20:00 +27°C° 0 mm 1 m/s 742 mmHg 89%
    21:00 +27°C° 0.2 mm 1 m/s 743 mmHg 91%
    22:00 +26°C° 0.2 mm 1 m/s 743 mmHg 92%
    23:00 +26°C° 0.2 mm 1 m/s 744 mmHg 93%

    26 Mars, Mardi

    Heure Température Précipitation Vent Pression Humidité
    00:00 +26°C° 1.4 mm 1 m/s 743 mmHg 95%
    01:00 +26°C° 1.4 mm 1 m/s 743 mmHg 96%
    02:00 +25°C° 1.4 mm 1 m/s 743 mmHg 97%
    03:00 +25°C° 1.1 mm 1 m/s 743 mmHg 97%
    04:00 +25°C° 1.1 mm 1 m/s 742 mmHg 97%
    05:00 +25°C° 1.1 mm 1 m/s 742 mmHg 98%
    06:00 +25°C° 1.5 mm 1 m/s 743 mmHg 98%
    07:00 +23°C° 1.5 mm 0 m/s 744 mmHg 98%
    08:00 +23°C° 1.5 mm 0 m/s 745 mmHg 98%
    09:00 +26°C° 1.5 mm 1 m/s 745 mmHg 97%
    10:00 +26°C° 1.5 mm 1 m/s 745 mmHg 97%
    11:00 +26°C° 1.5 mm 1 m/s 745 mmHg 97%
    12:00 +26°C° 0.5 mm 1 m/s 744 mmHg 96%
    13:00 +27°C° 0.5 mm 2 m/s 744 mmHg 95%
    14:00 +27°C° 0.5 mm 2 m/s 743 mmHg 94%
    15:00 +27°C° 0.2 mm 2 m/s 743 mmHg 92%
    16:00 +27°C° 0.2 mm 3 m/s 743 mmHg 90%
    17:00 +27°C° 0.2 mm 3 m/s 742 mmHg 88%
    18:00 +27°C° 0 mm 3 m/s 743 mmHg 90%
    19:00 +26°C° 0 mm 2 m/s 744 mmHg 92%
    20:00 +25°C° 0 mm 2 m/s 744 mmHg 94%
    21:00 +25°C° 0 mm 2 m/s 745 mmHg 94%
    22:00 +25°C° 0 mm 2 m/s 745 mmHg 93%
    23:00 +25°C° 0 mm 3 m/s 746 mmHg 92%

    27 Mars, Mercredi

    Heure Température Précipitation Vent Pression Humidité
    00:00 +24°C° 0.3 mm 3 m/s 745 mmHg 93%
    01:00 +24°C° 0.3 mm 3 m/s 745 mmHg 94%
    02:00 +24°C° 0.3 mm 2 m/s 745 mmHg 95%
    03:00 +24°C° 0.5 mm 2 m/s 745 mmHg 95%
    04:00 +23°C° 0.5 mm 2 m/s 745 mmHg 96%
    05:00 +23°C° 0.5 mm 2 m/s 745 mmHg 96%
    06:00 +23°C° 0.2 mm 2 m/s 746 mmHg 96%
    07:00 +23°C° 0.2 mm 2 m/s 747 mmHg 95%
    08:00 +23°C° 0.2 mm 2 m/s 747 mmHg 95%
    09:00 +23°C° 0.1 mm 2 m/s 748 mmHg 94%
    10:00 +23°C° 0.1 mm 2 m/s 748 mmHg 94%
    11:00 +23°C° 0.1 mm 2 m/s 748 mmHg 93%
    12:00 +23°C° 0 mm 2 m/s 747 mmHg 91%
    13:00 +24°C° 0 mm 2 m/s 747 mmHg 89%
    14:00 +24°C° 0 mm 2 m/s 746 mmHg 87%
    15:00 +24°C° 0 mm 2 m/s 746 mmHg 85%
    16:00 +24°C° 0 mm 3 m/s 745 mmHg 82%
    17:00 +24°C° 0 mm 3 m/s 745 mmHg 79%
    18:00 +24°C° 0 mm 3 m/s 745 mmHg 80%
    19:00 +23°C° 0 mm 2 m/s 745 mmHg 81%
    20:00 +23°C° 0 mm 2 m/s 746 mmHg 81%
    21:00 +23°C° 0 mm 2 m/s 746 mmHg 83%
    22:00 +23°C° 0 mm 2 m/s 746 mmHg 84%
    23:00 +21°C° 0 mm 2 m/s 747 mmHg 86%
    Voir plus